カタログに戻る

STARLINK-34807

運用中通信VLEO
NORAD 65028·PAYLOAD·🇺🇸 United States

打ち上げ Jul 30, 2025 から Cape Canaveral Space Force Station

Loading…

次のパス (今後24時間)

TLE

最新Source: CelesTrak SupGP

元期: Sep 14, 2026, 22:56 UTC

1 65028C 25161P   26257.95604167 -.00001800  00000+0 -53195-4 0  2570
2 65028  53.1569 131.5618 0001062  85.3909  36.0058 15.34383264    12

AllMySatでSTARLINK-34807をリアルタイム追跡

Download on the App Store